This is the latest recevied weather packets stored in our database for station/object EA2CW-13. If no packets are shown the sender has not sent any weather packets the latest 10 day(s).
| Time | Temp. | Humidity | Pressure | Rain* | Wind** | Luminosity | Snow |
|---|---|---|---|---|---|---|---|
| 1777693885 | 20° C | 59% | 1052.4 hPa | - | - | 0 W/m² | - |
| 1777692949 | 20° C | 59% | 1052.6 hPa | - | - | 0 W/m² | - |
| 1777692013 | 20° C | 59% | 1052.5 hPa | - | - | 0 W/m² | - |
| 1777691077 | 20.56° C | 58% | 1052.5 hPa | - | - | 0 W/m² | - |
| 1777690141 | 20.56° C | 58% | 1052.5 hPa | - | - | 0 W/m² | - |
| 1777689205 | 20.56° C | 57% | 1052.5 hPa | - | - | 0 W/m² | - |
| 1777688270 | 20.56° C | 57% | 1052.6 hPa | - | - | 0 W/m² | - |
| 1777687334 | 21.11° C | 57% | 1052.5 hPa | - | - | 0 W/m² | - |
| 1777686398 | 21.11° C | 58% | 1052.3 hPa | - | - | 0 W/m² | - |
| 1777685462 | 21.11° C | 59% | 1052.2 hPa | - | - | 0 W/m² | - |
| 1777684526 | 21.11° C | 62% | 1052.2 hPa | - | - | 0 W/m² | - |
| 1777683590 | 20.56° C | 67% | 1052.2 hPa | - | - | 0 W/m² | - |
| 1777682654 | 20° C | 72% | 1052.5 hPa | - | - | 0 W/m² | - |
| 1777681718 | 20° C | 73% | 1052.8 hPa | - | - | 0 W/m² | - |
| 1777680782 | 20° C | 74% | 1052.9 hPa | - | - | 0 W/m² | - |
| 1777679846 | 20° C | 74% | 1053.1 hPa | - | - | 0 W/m² | - |
| 1777678910 | 20° C | 75% | 1053.3 hPa | - | - | 0 W/m² | - |
| 1777677974 | 20° C | 75% | 1053.2 hPa | - | - | 0 W/m² | - |
| 1777677038 | 20.56° C | 75% | 1053.4 hPa | - | - | 0 W/m² | - |
| 1777676102 | 20.56° C | 75% | 1053.3 hPa | - | - | 0 W/m² | - |
| 1777675166 | 20.56° C | 74% | 1053.4 hPa | - | - | 0 W/m² | - |
| 1777674231 | 20.56° C | 73% | 1053.3 hPa | - | - | 0 W/m² | - |
| 1777673294 | 20.56° C | 71% | 1053.4 hPa | - | - | 0 W/m² | - |
| 1777672358 | 21.11° C | 69% | 1053.4 hPa | - | - | 0 W/m² | - |
| 1777671422 | 21.11° C | 67% | 1053.7 hPa | - | - | 0 W/m² | - |
* Rain since midnight (hover to see other rain measurements)
** Current wind speed in m/s (hover to see current wind gust speed)